Simultaneous Nadir Overpasses (SNOs) Predictions

Prediction of SNOs between GOES-16 and LANDSAT-8 Satellite Orbit:

Table of predicted SNOs for the next 14.0 days since TLE Epoch: 11/28/2020
Index Date Time (GOES-16) GOES-16 Lat,Lon LANDSAT-8 Lat,Lon Distance(km) Time Diff (sec)
1 11/28/2020 14:57:19 0.01, -75.21 -0.89, -70.95 483.46 80
2 11/29/2020 03:18:43 -0.01, -75.18 -0.24, -76.14 110.15 80
3 12/01/2020 03:03:53 0.00, -75.19 0.46, -73.20 227.65 80
4 12/01/2020 15:25:08 -0.00, -75.23 0.67, -78.35 354.78 80
5 12/03/2020 15:12:57 -0.01, -75.25 0.04, -75.39 16.73 80
6 12/05/2020 15:03:26 -0.01, -75.27 -0.60, -72.44 322.02 80
7 12/06/2020 03:24:49 0.01, -75.25 -0.52, -77.63 270.97 80
8 12/08/2020 03:09:59 0.01, -75.28 0.13, -74.68 68.45 80
9 12/10/2020 02:57:48 0.01, -75.31 0.78, -71.72 408.40 80
10 12/10/2020 15:19:03 -0.01, -75.35 0.29, -76.89 173.77 80
